Regional Weather Roundup
Issued by NWS

Home | Current Version | Previous Version | Graphics & Text | Print | Product List | Glossary On
Versions: 1 2 3 4 5 6 7 8 9 10 11 12 13 14 15 16 17 18 19 20 21 22 23 24 25 26 27 28 29 30 31 32 33 34 35 36 37 38 39 40 41 42 43 44 45 46 47 48 49 50
000
ASUS43 KMKX 231920
RWRWI

WISCONSIN REGIONAL WEATHER ROUNDUP
NATIONAL WEATHER SERVICE MILWAUKEE/SULLIVAN WI
100 PM CST FRI FEB 23 2018

NOTE: "FAIR" INDICATES FEW OR NO CLOUDS BELOW 12,000 FEET WITH NO
SIGNIFICANT WEATHER AND/OR OBSTRUCTIONS TO VISIBILITY.

WIZ001-002-006>008-014>016-023>028-232000-
NORTHWEST WISCONSIN

CITY           SKY/WX    TMP DP  RH WIND       PRES   REMARKS
SUPERIOR ARPT  CLOUDY    31  22  69 W9        30.11R WCI  23
ASHLAND        CLOUDY    32  23  69 W15G21    30.07R WCI  22
HAYWARD        CLOUDY    30  23  75 VRB7      30.08R WCI  23
SIREN          PTSUNNY   32  21  65 W7        30.12S WCI  25
CUMBERLAND     CLOUDY    28  21  74 W12       30.12R WCI  18
RICE LAKE      CLOUDY    29  23  78 W10       30.14R WCI  20
CHETEK         CLOUDY    29  24  79 W10G16    30.14R WCI  20
LADYSMITH      CLOUDY    30  25  81 W12       30.11R WCI  20
EAU CLAIRE     CLOUDY    29  24  82 W15       30.15R HAZE    WCI  18
MENOMONIE      CLOUDY    30  24  77 W9        30.17R WCI  21
NEW RICHMOND   CLOUDY    30  21  70 W12       30.16R WCI  20
OSCEOLA        CLOUDY    32  22  67 W8        30.19R WCI  25
$$

WIZ003>005-009-010-017-018-232000-
NORTH CENTRAL WISCONSIN

CITY           SKY/WX    TMP DP  RH WIND       PRES   REMARKS
MANITOWISH WTR CLOUDY    28  27  94 W12       30.01R WCI  18
ARBOR VITAE    CLOUDY    32  29  89 W10       30.01R WCI  23
WOODRUFF       CLOUDY    32  29  89 W10       30.01R WCI  23
RHINELANDER    MIX PCPN  31  28  89 W16G23    30.01R WCI  20
EAGLE RIVER    CLOUDY    29  28  92 W12G17    29.99S WCI  20
LAND O LAKES   CLOUDY    30  27  86 W9        30.00R WCI  22
PHILLIPS       CLOUDY    28  26  94 SW9       30.04R WCI  19
TOMAHAWK       CLOUDY    29  26  89 W13       30.05R WCI  19
MEDFORD        CLOUDY    28  26  91 W15G22    30.06R WCI  17
MERRILL        CLOUDY    31  28  88 W15       30.06R WCI  21
$$

WIZ029-030-035-036-043>047-232000-
CENTRAL WISCONSIN

CITY           SKY/WX    TMP DP  RH WIND       PRES   REMARKS
WAUSAU         CLOUDY    32  27  81 W18G29    30.05R WCI  20
MOSINEE        CLOUDY    32  30  93 W16       30.07R WCI  21
MARSHFIELD     CLOUDY    31  26  82 W18G24    30.07R WCI  19
STEVENS POINT  CLOUDY    32  28  86 W14G21    30.08R WCI  22
WAUPACA        CLOUDY    38  31  76 W16G24    30.08R WCI  28
WAUTOMA        CLOUDY    35  30  82 W15       30.10R WCI  25
WISC RAPIDS    CLOUDY    33  26  75 W14G22    30.11R WCI  23
CAMP DOUGLAS   CLOUDY    34  28  80 W12       30.12R WCI  25
$$

WIZ011>013-019>022-031-037>040-048>050-232000-
NORTHEAST WISCONSIN

CITY           SKY/WX    TMP DP  RH WIND       PRES   REMARKS
ANTIGO         CLOUDY    32  29  91 W17       30.02R WCI  20
SHAWANO        CLOUDY    38  31  75 W13G20    30.04S WCI  30
OCONTO         CLOUDY    37  32  82 W12G17    30.03S WCI  29
STURGEON BAY   CLOUDY    37  31  78 W16       30.02S WCI  28
GREEN BAY      CLOUDY    38  30  73 W18G24    30.05S WCI  28
MANITOWOC      CLOUDY    38  32  79 W16G23    30.06S WCI  29
APPLETON       CLOUDY    36  28  75 W20       30.04F WCI  25
CLINTONVILLE   CLOUDY    36  29  75 W14G23    30.06S WCI  27
OSHKOSH        CLOUDY    37  31  78 W7        30.08R WCI  32
$$

WIZ032>034-041-042-053>061-232000-
SOUTHWEST WISCONSIN

CITY           SKY/WX    TMP DP  RH WIND       PRES   REMARKS
LA CROSSE      PTSUNNY   32  25  75 W12       30.18R WCI  23
SPARTA         CLOUDY    32  28  84 W12G18    30.16R WCI  23
VIROQUA        CLOUDY    32  29  88 NW13      30.13S WCI  23
BOSCOBEL       PTSUNNY   37  27  67 W12       30.19R WCI  29
PRAIRIE DU CHI PTSUNNY   34  25  70 W14       30.21R WCI  24
PLATTEVILLE    CLOUDY    36  32  85 W12G22    30.19R WCI  28
$$

WIZ056-057-062-063-064-067-068-232000-
SOUTH CENTRAL WISCONSIN

CITY           SKY/WX    TMP DP  RH WIND       PRES   REMARKS
REEDSBURG      CLOUDY    36  30  78 W14       30.13R WCI  27
BARABOO/DELLS  CLOUDY    35  29  80 W13       30.12R WCI  26
LONE ROCK      CLOUDY    37  29  72 W13G22    30.15S WCI  29
MINERAL POINT  CLOUDY    37  32  81 W16       30.14S WCI  28
MADISON        CLOUDY    37  31  78 W7G16     30.13F WCI  32
MIDDLETON      CLOUDY    38  32  79 W12       30.13F WCI  30
WATERTOWN      CLOUDY    37  34  90 W12       30.11F WCI  29
MONROE         CLOUDY    36  32  87 W16       30.15R WCI  26
JANESVILLE     CLOUDY    37  37 100 W14       30.14F WCI  29
$$

WIZ051-052-058>065-066-070>072-232000-
SOUTHEAST WISCONSIN

CITY           SKY/WX    TMP DP  RH WIND       PRES   REMARKS
MILWAUKEE      CLOUDY    40  35  83 W13G23    30.12S WCI  32
WAUKESHA       CLOUDY    36  34  93 W13G20    30.13R WCI  27
MILWAUKEE/TIMM CLOUDY    37  32  81 W16G22    30.12S WCI  28
RACINE         CLOUDY    38  35  89 W12G24    30.14R WCI  30
BURLINGTON     CLOUDY    36  32  85 W9G20     30.14S WCI  29
KENOSHA        CLOUDY    39  34  82 W16G25    30.13S WCI  30
FOND DU LAC    CLOUDY    37  31  78 W12G17    30.09S WCI  29
SHEBOYGAN      CLOUDY    38  33  82 W17G29    30.07F WCI  28
WEST BEND      CLOUDY    36  36 100 W14       30.09S WCI  27
JUNEAU         CLOUDY    35  33  92 SW10G16   30.12S WCI  27
$$

LSZ147-162-232000-
LAKE SUPERIOR

STATION/POSITION TIME  TEMP    WIND        PRES    WAVE
                       AIR SEA DIR/SP/G            HT/PER
                 (UTC) (F)     (DEG/KT/KT) (MB)    (FT/S)
DEVILS ISLAND    1900   29     250/ 20/ 23 1018.2R
SAXON HARBOR     1840   32     270/  7/ 12 1017.3R
$$

LMZ867-665-643>646-232000-
LAKE MICHIGAN

STATION/POSITION TIME  TEMP    WIND        PRES    WAVE
                       AIR SEA DIR/SP/G            HT/PER
                 (UTC) (F)     (DEG/KT/KT) (MB)    (FT/S)
NORTHPORT PIER   1840   38                 1015.6F
KEWAUNEE LAKESHO 1854   38     260/ 11/ 15 1016.4F
SHEBOYGAN LAKESH 1900   39     270/ 19/ 23 1019.0F
PORT WASHINGTON  1840   38     280/  9/ 13 1020.3S
KENOSHA   LAKESH 1900   38     260/  9/ 21 1020.7
$$

TC  - TEMPERATURE IN CELSIUS
VSB - VISIBILITY IN STATUTE MILES
WCI - WIND CHILL INDEX
HX  - HEAT INDEX





USA.gov is the U.S. government's official web portal to all federal, state and local government web resources and services.